Silver Bay, MN

10:36 PM CST on January 19, 2018 (GMT -0600)
Silver Bay Municipal

Weather History for KBFW - September, 2013

Change the Weather History Date:

Sunday, September 22, 2013

  Actual Average Record
Temperature  
Mean Temperature 40 °F -  
Max Temperature 51 °F 59 °F 78 °F (2017)
Min Temperature 28 °F 37 °F 26 °F (1998)
Degree Days  
Heating Degree Days 26    
Moisture  
Dew Point 35 °F    
Average Humidity 76    
Maximum Humidity 93    
Minimum Humidity 54    
Precipitation  
Precipitation 0.00 in - - ()
Sea Level Pressure  
Sea Level Pressure 30.00 in    
Wind  
Wind Speed 3 mph (East)    
Max Wind Speed 14 mph    
Max Gust Speed 20 mph    
Visibility 10 miles    
Events      
Averages and records for this station are not official NWS values.
T = Trace of Precipitation, MM = Missing Value Source: NWS Daily Summary

Daily Weather History Graph

Daily Weather History Graph

Search for Another Location

Airport or City:

Trip Planner

Search our weather history database for the weather conditions in past years. The results will help you decide how hot, cold, wet, or windy it might be!

Date:

Astronomy

Sep. 22, 2013 Rise Set
Actual Time 6:52 AM CDT 7:02 PM CDT
Civil Twilight 6:22 AM CDT 7:33 PM CDT
Nautical Twilight 5:46 AM CDT 8:09 PM CDT
Astronomical Twilight 5:09 AM CDT 8:46 PM CDT
Moon 8:36 PM CDT (9/22) 10:29 AM CDT (9/22)
Length of Visible Light 13h 11m
Length of Day
12h 10m
Waning Gibbous, 88% of the Moon is Illuminated
Sep 22
Waning Gibbous
Sep 26
Last Quarter
Oct 4
New
Oct 11
First Quarter
Oct 18
Full

Hourly Weather History & Observations

Time (CDT) Temp. Windchill Dew Point Humidity Pressure Visibility Wind Dir Wind Speed Gust Speed Precip Events Conditions
12:13 AM 30.2 °F - 28.4 °F 93% 29.98 in 10.0 mi Calm Calm - N/A   Clear
12:33 AM 30.2 °F - 28.4 °F 93% 29.98 in 10.0 mi Calm Calm - N/A   Clear
12:53 AM 30.2 °F - 28.4 °F 93% 29.99 in 10.0 mi Calm Calm - N/A   Clear
1:13 AM 30.2 °F - 28.4 °F 93% 29.99 in 10.0 mi Calm Calm - N/A   Clear
1:33 AM 30.2 °F - 28.4 °F 93% 29.99 in 10.0 mi Calm Calm - N/A   Clear
1:53 AM 30.2 °F - 26.6 °F 86% 30.00 in 10.0 mi Calm Calm - N/A   Clear
2:13 AM 30.2 °F - 26.6 °F 86% 30.00 in 10.0 mi Calm Calm - N/A   Clear
2:33 AM 28.4 °F - 26.6 °F 93% 30.00 in 10.0 mi Calm Calm - N/A   Clear
2:53 AM 28.4 °F - 26.6 °F 93% 29.99 in 10.0 mi Calm Calm - N/A   Clear
3:13 AM 28.4 °F - 26.6 °F 93% 29.99 in 10.0 mi Calm Calm - N/A   Clear
3:33 AM 28.4 °F - 26.6 °F 93% 30.00 in 10.0 mi Calm Calm - N/A   Clear
3:53 AM 28.4 °F - 26.6 °F 93% 30.00 in 10.0 mi Calm Calm - N/A   Clear
4:13 AM 28.4 °F - 26.6 °F 93% 30.00 in 10.0 mi Calm Calm - N/A   Clear
4:33 AM 28.4 °F - 26.6 °F 93% 30.01 in 10.0 mi Calm Calm - N/A   Clear
4:53 AM 28.4 °F - 26.6 °F 93% 30.01 in 10.0 mi Calm Calm - N/A   Clear
5:13 AM 30.2 °F - 26.6 °F 86% 30.01 in 10.0 mi Calm Calm - N/A   Clear
5:33 AM 30.2 °F - 26.6 °F 86% 30.01 in 10.0 mi Calm Calm - N/A   Clear
5:53 AM 30.2 °F - 26.6 °F 86% 30.01 in 10.0 mi Calm Calm - N/A   Scattered Clouds
6:13 AM 33.8 °F - 30.2 °F 87% 30.01 in 10.0 mi Calm Calm - N/A   Scattered Clouds
6:33 AM 33.8 °F - 32.0 °F 93% 30.01 in 10.0 mi Calm Calm - N/A   Scattered Clouds
6:53 AM 37.4 °F - 33.8 °F 87% 30.02 in 10.0 mi Calm Calm - N/A   Scattered Clouds
7:13 AM 37.4 °F - 35.6 °F 93% 30.02 in 10.0 mi Calm Calm - N/A   Scattered Clouds
7:33 AM 41.0 °F - 37.4 °F 87% 30.03 in 10.0 mi Calm Calm - N/A   Scattered Clouds
7:53 AM 42.8 °F - 39.2 °F 87% 30.03 in 10.0 mi Calm Calm - N/A   Scattered Clouds
8:13 AM 44.6 °F - 39.2 °F 81% 30.03 in 10.0 mi Calm Calm - N/A   Clear
8:33 AM 44.6 °F - 39.2 °F 81% 30.03 in 10.0 mi Calm Calm - N/A   Clear
8:53 AM 46.4 °F 45.2 °F 41.0 °F 81% 30.04 in 10.0 mi SSE 3.5 mph - N/A   Clear
9:13 AM 46.4 °F 45.2 °F 41.0 °F 81% 30.04 in 10.0 mi SE 3.5 mph - N/A   Clear
9:33 AM 48.2 °F - 39.2 °F 71% 30.05 in 10.0 mi SSE 9.2 mph - N/A   Clear
9:53 AM 48.2 °F - 37.4 °F 66% 30.05 in 10.0 mi ESE 8.1 mph - N/A   Clear
10:13 AM 48.2 °F - 39.2 °F 71% 30.05 in 10.0 mi ESE 5.8 mph - N/A   Clear
10:33 AM 48.2 °F - 37.4 °F 66% 30.05 in 10.0 mi SSE 8.1 mph - N/A   Clear
10:53 AM 50.0 °F - 35.6 °F 58% 30.05 in 10.0 mi SSE 8.1 mph - N/A   Clear
11:13 AM 51.8 °F - 35.6 °F 54% 30.05 in 10.0 mi SE 6.9 mph - N/A   Clear
11:33 AM 51.8 °F - 35.6 °F 54% 30.04 in 10.0 mi ESE 6.9 mph 16.1 mph N/A   Clear
11:53 AM 51.8 °F - 35.6 °F 54% 30.04 in 10.0 mi ESE 8.1 mph 16.1 mph N/A   Clear
12:13 PM 51.8 °F - 35.6 °F 54% 30.04 in 10.0 mi East 8.1 mph - N/A   Clear
12:33 PM 51.8 °F - 35.6 °F 54% 30.03 in 10.0 mi East 10.4 mph 16.1 mph N/A   Clear
12:53 PM 51.8 °F - 35.6 °F 54% 30.03 in 10.0 mi ESE 8.1 mph 16.1 mph N/A   Clear
1:13 PM 51.8 °F - 35.6 °F 54% 30.03 in 10.0 mi ESE 9.2 mph - N/A   Clear
1:33 PM 51.8 °F - 37.4 °F 58% 30.02 in 10.0 mi East 6.9 mph - N/A   Clear
1:53 PM 51.8 °F - 37.4 °F 58% 30.01 in 10.0 mi ENE 11.5 mph - N/A   Clear
2:13 PM 51.8 °F - 35.6 °F 54% 30.01 in 10.0 mi East 11.5 mph 17.3 mph N/A   Clear
2:33 PM 51.8 °F - 35.6 °F 54% 30.00 in 10.0 mi East 12.7 mph - N/A   Clear
2:53 PM 51.8 °F - 37.4 °F 58% 30.00 in 10.0 mi East 9.2 mph 16.1 mph N/A   Clear
3:13 PM 51.8 °F - 37.4 °F 58% 30.00 in 10.0 mi ENE 10.4 mph - N/A   Clear
3:33 PM 51.8 °F - 37.4 °F 58% 29.99 in 10.0 mi ENE 10.4 mph - N/A   Clear
3:53 PM 51.8 °F - 37.4 °F 58% 29.99 in 10.0 mi ENE 12.7 mph 19.6 mph N/A   Clear
4:14 PM 51.8 °F - 37.4 °F 58% 29.99 in 10.0 mi ENE 12.7 mph 16.1 mph N/A   Clear
4:33 PM 51.8 °F - 37.4 °F 58% 29.99 in 10.0 mi ENE 9.2 mph - N/A   Clear
4:53 PM 50.0 °F - 37.4 °F 62% 29.98 in 10.0 mi ENE 10.4 mph 16.1 mph N/A   Clear
5:13 PM 50.0 °F - 37.4 °F 62% 29.98 in 10.0 mi East 13.8 mph 18.4 mph N/A   Clear
5:33 PM 50.0 °F - 37.4 °F 62% 29.98 in 10.0 mi ENE 10.4 mph 17.3 mph N/A   Clear
5:53 PM 48.2 °F - 37.4 °F 66% 29.98 in 10.0 mi East 12.7 mph 16.1 mph N/A   Clear
6:13 PM 48.2 °F - 37.4 °F 66% 29.97 in 10.0 mi ENE 11.5 mph 16.1 mph N/A   Clear
6:33 PM 46.4 °F 42.4 °F 37.4 °F 71% 29.97 in 10.0 mi ENE 8.1 mph - N/A   Clear
6:54 PM 46.4 °F 42.9 °F 37.4 °F 71% 29.97 in 10.0 mi ENE 6.9 mph - N/A   Clear
7:13 PM 46.4 °F 42.9 °F 37.4 °F 71% 29.97 in 10.0 mi ENE 6.9 mph - N/A   Clear
7:33 PM 46.4 °F 44.3 °F 37.4 °F 71% 29.97 in 10.0 mi ENE 4.6 mph - N/A   Clear
7:53 PM 46.4 °F 43.5 °F 39.2 °F 76% 29.98 in 10.0 mi ENE 5.8 mph - N/A   Clear
8:13 PM 46.4 °F 42.9 °F 39.2 °F 76% 29.98 in 10.0 mi ENE 6.9 mph - N/A   Clear
8:33 PM 46.4 °F 42.9 °F 41.0 °F 81% 29.98 in 10.0 mi ENE 6.9 mph - N/A   Clear
8:53 PM 46.4 °F 43.5 °F 41.0 °F 81% 29.98 in 10.0 mi ENE 5.8 mph - N/A   Clear
9:13 PM 46.4 °F 42.9 °F 41.0 °F 81% 29.98 in 10.0 mi ENE 6.9 mph - N/A   Clear
9:33 PM 46.4 °F 42.4 °F 42.8 °F 87% 29.98 in 10.0 mi ENE 8.1 mph - N/A   Clear
9:53 PM 46.4 °F 43.5 °F 42.8 °F 87% 29.98 in 10.0 mi NE 5.8 mph - N/A   Clear
10:13 PM 46.4 °F 43.5 °F 42.8 °F 87% 29.97 in 10.0 mi NE 5.8 mph - N/A   Clear
10:33 PM 46.4 °F 43.5 °F 42.8 °F 87% 29.97 in 10.0 mi NE 5.8 mph - N/A   Clear
10:54 PM 46.4 °F 42.4 °F 42.8 °F 87% 29.97 in 10.0 mi NE 8.1 mph - N/A   Clear
11:13 PM 46.4 °F 42.9 °F 42.8 °F 87% 29.97 in 10.0 mi NNE 6.9 mph - N/A   Clear
11:33 PM 46.4 °F - 42.8 °F 87% 29.96 in 10.0 mi Calm Calm - N/A   Clear
11:53 PM 46.4 °F - 42.8 °F 87% 29.96 in 10.0 mi Calm Calm - N/A   Clear